Time,TemperatureF,DewpointF,PressureIn,WindDirection,WindDirectionDegrees,WindSpeedMPH,WindSpeedGustMPH,Humidity,HourlyPrecipIn,Conditions,Clouds,dailyrainin,SoftwareType,DateUTC
2013-09-03 00:12:00,84.0,76.0,29.95,West,281,0.0,-999.0,76,-99.99,,,-99.99,,2013-09-03 05:12:00,
2013-09-03 00:23:00,84.0,76.0,29.95,West,281,0.0,-999.0,76,-99.99,,,-99.99,,2013-09-03 05:23:00,
2013-09-03 00:52:00,84.0,76.0,29.95,West,281,0.0,-999.0,76,-99.99,,,-99.99,,2013-09-03 05:52:00,
2013-09-03 01:12:00,83.0,75.0,29.95,West,281,0.0,-999.0,77,-99.99,,,-99.99,,2013-09-03 06:12:00,
2013-09-03 01:22:00,83.0,75.0,29.95,West,281,0.0,-999.0,76,-99.99,,,-99.99,,2013-09-03 06:22:00,
2013-09-03 01:52:00,83.0,75.0,29.96,West,281,0.0,-999.0,76,-99.99,,,-99.99,,2013-09-03 06:52:00,
2013-09-03 02:12:00,82.0,73.0,29.95,West,281,0.0,-999.0,75,-99.99,,,-99.99,,2013-09-03 07:12:00,
2013-09-03 02:22:00,82.0,73.0,29.95,West,281,0.0,-999.0,75,-99.99,,,-99.99,,2013-09-03 07:22:00,
2013-09-03 02:53:00,81.0,72.0,29.95,West,281,0.0,-999.0,75,-99.99,,,-99.99,,2013-09-03 07:53:00,
2013-09-03 03:11:00,81.0,73.0,29.95,West,281,0.0,-999.0,76,-99.99,,,-99.99,,2013-09-03 08:11:00,
2013-09-03 03:22:00,81.0,73.0,29.95,West,281,0.0,-999.0,76,-99.99,,,-99.99,,2013-09-03 08:22:00,
2013-09-03 03:52:00,80.0,72.0,29.96,West,281,0.0,-999.0,76,-99.99,,,-99.99,,2013-09-03 08:52:00,
2013-09-03 04:11:00,80.0,72.0,29.96,West,281,0.0,-999.0,77,-99.99,,,-99.99,,2013-09-03 09:11:00,
2013-09-03 04:21:00,79.0,71.0,29.96,West,281,0.0,-999.0,77,-99.99,,,-99.99,,2013-09-03 09:21:00,
2013-09-03 04:53:00,79.0,72.0,29.96,West,281,0.0,-999.0,78,-99.99,,,-99.99,,2013-09-03 09:53:00,
2013-09-03 05:13:00,78.0,70.0,29.96,West,281,0.0,-999.0,77,-99.99,,,-99.99,,2013-09-03 10:13:00,
2013-09-03 05:23:00,78.0,70.0,29.96,West,281,0.0,-999.0,77,-99.99,,,-99.99,,2013-09-03 10:23:00,
2013-09-03 05:53:00,77.0,69.0,29.97,West,281,0.0,-999.0,77,-99.99,,,-99.99,,2013-09-03 10:53:00,
2013-09-03 06:12:00,77.0,69.0,29.97,West,281,0.0,-999.0,77,-99.99,,,-99.99,,2013-09-03 11:12:00,
2013-09-03 06:23:00,76.0,68.0,29.97,West,281,0.0,-999.0,77,-99.99,,,-99.99,,2013-09-03 11:23:00,
2013-09-03 06:52:00,76.0,68.0,29.97,West,281,0.0,-999.0,76,-99.99,,,-99.99,,2013-09-03 11:52:00,
2013-09-03 07:12:00,75.0,67.0,29.98,West,281,0.0,-999.0,76,-99.99,,,-99.99,,2013-09-03 12:12:00,
2013-09-03 07:21:00,75.0,67.0,29.98,West,281,0.0,-999.0,76,-99.99,,,-99.99,,2013-09-03 12:21:00,
2013-09-03 07:52:00,75.0,67.0,29.99,West,281,2.0,-999.0,76,-99.99,,,-99.99,,2013-09-03 12:52:00,
2013-09-03 08:11:00,75.0,67.0,29.99,West,281,1.0,-999.0,76,-99.99,,,-99.99,,2013-09-03 13:11:00,
2013-09-03 08:21:00,75.0,67.0,30.00,West,281,0.0,-999.0,76,-99.99,,,-99.99,,2013-09-03 13:21:00,
2013-09-03 08:52:00,76.0,68.0,30.00,West,281,0.0,-999.0,76,-99.99,,,-99.99,,2013-09-03 13:52:00,
2013-09-03 09:11:00,77.0,69.0,30.00,West,281,1.0,-999.0,76,-99.99,,,-99.99,,2013-09-03 14:11:00,
2013-09-03 09:21:00,78.0,69.0,30.00,West,281,0.0,-999.0,75,-99.99,,,-99.99,,2013-09-03 14:21:00,
2013-09-03 09:52:00,80.0,71.0,30.01,West,281,0.0,-999.0,73,-99.99,,,-99.99,,2013-09-03 14:52:00,
2013-09-03 10:22:00,82.0,72.0,30.01,West,281,0.0,-999.0,72,-99.99,,,-99.99,,2013-09-03 15:22:00,
2013-09-03 10:54:00,83.0,72.0,30.02,West,281,2.0,-999.0,70,-99.99,,,-99.99,,2013-09-03 15:54:00,
2013-09-03 11:14:00,83.0,72.0,30.02,West,281,1.0,-999.0,69,-99.99,,,-99.99,,2013-09-03 16:14:00,
2013-09-03 11:24:00,84.0,73.0,30.02,West,281,1.0,-999.0,69,-99.99,,,-99.99,,2013-09-03 16:24:00,
2013-09-03 11:54:00,86.0,74.0,30.02,West,281,1.0,-999.0,67,-99.99,,,-99.99,,2013-09-03 16:54:00,
2013-09-03 12:13:00,87.0,74.0,30.01,West,281,1.0,-999.0,66,-99.99,,,-99.99,,2013-09-03 17:13:00,
2013-09-03 12:23:00,88.0,75.0,30.01,WNW,282,2.0,-999.0,65,-99.99,,,-99.99,,2013-09-03 17:23:00,
2013-09-03 12:52:00,90.0,75.0,30.00,WNW,282,1.0,-999.0,62,-99.99,,,-99.99,,2013-09-03 17:52:00,
2013-09-03 13:12:00,91.0,76.0,30.00,WNW,282,2.0,-999.0,62,-99.99,,,-99.99,,2013-09-03 18:12:00,
2013-09-03 13:22:00,92.0,77.0,29.99,WNW,282,2.0,-999.0,61,-99.99,,,-99.99,,2013-09-03 18:22:00,
2013-09-03 13:52:00,93.0,75.0,29.98,WNW,282,2.0,-999.0,57,-99.99,,,-99.99,,2013-09-03 18:52:00,
2013-09-03 14:11:00,94.0,76.0,29.98,WNW,283,2.0,-999.0,56,-99.99,,,-99.99,,2013-09-03 19:11:00,
2013-09-03 14:52:00,95.0,73.0,29.96,WNW,283,2.0,-999.0,50,-99.99,,,-99.99,,2013-09-03 19:52:00,
2013-09-03 15:11:00,95.0,73.0,29.96,WNW,283,3.0,-999.0,49,-99.99,,,-99.99,,2013-09-03 20:11:00,
2013-09-03 15:22:00,95.0,72.0,29.95,West,281,1.0,-999.0,47,-99.99,,,-99.99,,2013-09-03 20:22:00,
2013-09-03 15:42:00,97.0,73.0,29.94,WNW,283,2.0,-999.0,46,-99.99,,,-99.99,,2013-09-03 20:42:00,
2013-09-03 15:53:00,97.0,71.0,29.93,WNW,283,2.0,-999.0,44,-99.99,,,-99.99,,2013-09-03 20:53:00,
2013-09-03 16:12:00,97.0,71.0,29.93,WNW,283,1.0,-999.0,43,-99.99,,,-99.99,,2013-09-03 21:12:00,
2013-09-03 16:22:00,97.0,69.0,29.92,WNW,283,1.0,-999.0,41,-99.99,,,-99.99,,2013-09-03 21:22:00,
2013-09-03 16:44:00,97.0,69.0,29.91,WNW,283,1.0,-999.0,41,-99.99,,,-99.99,,2013-09-03 21:44:00,
2013-09-03 16:54:00,98.0,70.0,29.91,WNW,283,1.0,-999.0,41,-99.99,,,-99.99,,2013-09-03 21:54:00,
2013-09-03 17:13:00,97.0,68.0,29.91,WNW,283,1.0,-999.0,39,-99.99,,,-99.99,,2013-09-03 22:13:00,
2013-09-03 17:23:00,98.0,69.0,29.90,WNW,283,1.0,-999.0,39,-99.99,,,-99.99,,2013-09-03 22:23:00,
2013-09-03 17:53:00,98.0,69.0,29.90,WNW,283,1.0,-999.0,39,-99.99,,,-99.99,,2013-09-03 22:53:00,
2013-09-03 18:22:00,98.0,68.0,29.90,WNW,283,1.0,-999.0,38,-99.99,,,-99.99,,2013-09-03 23:22:00,
2013-09-03 18:54:00,98.0,67.0,29.90,WNW,283,0.0,-999.0,37,-99.99,,,-99.99,,2013-09-03 23:54:00,
2013-09-03 19:12:00,98.0,68.0,29.90,WNW,283,1.0,-999.0,38,-99.99,,,-99.99,,2013-09-04 00:12:00,
2013-09-03 19:22:00,97.0,66.0,29.91,WNW,283,0.0,-999.0,37,-99.99,,,-99.99,,2013-09-04 00:22:00,
2013-09-03 19:42:00,97.0,67.0,29.91,WNW,282,0.0,-999.0,38,-99.99,,,-99.99,,2013-09-04 00:42:00,
2013-09-03 19:52:00,96.0,66.0,29.92,WNW,282,0.0,-999.0,38,-99.99,,,-99.99,,2013-09-04 00:52:00,
2013-09-03 20:11:00,95.0,66.0,29.92,WNW,282,0.0,-999.0,39,-99.99,,,-99.99,,2013-09-04 01:11:00,
2013-09-03 20:22:00,95.0,67.0,29.93,WNW,282,0.0,-999.0,40,-99.99,,,-99.99,,2013-09-04 01:22:00,
2013-09-03 20:42:00,94.0,67.0,29.93,WNW,282,0.0,-999.0,42,-99.99,,,-99.99,,2013-09-04 01:42:00,
2013-09-03 20:53:00,93.0,68.0,29.93,West,281,0.0,-999.0,45,-99.99,,,-99.99,,2013-09-04 01:53:00,
2013-09-03 21:11:00,92.0,68.0,29.93,West,281,0.0,-999.0,46,-99.99,,,-99.99,,2013-09-04 02:11:00,
2013-09-03 21:22:00,91.0,69.0,29.94,West,281,0.0,-999.0,48,-99.99,,,-99.99,,2013-09-04 02:22:00,
2013-09-03 21:43:00,90.0,69.0,29.95,West,281,0.0,-999.0,50,-99.99,,,-99.99,,2013-09-04 02:43:00,
2013-09-03 21:52:00,89.0,69.0,29.95,West,281,0.0,-999.0,52,-99.99,,,-99.99,,2013-09-04 02:52:00,
2013-09-03 22:11:00,88.0,69.0,29.96,West,281,0.0,-999.0,53,-99.99,,,-99.99,,2013-09-04 03:11:00,
2013-09-03 22:22:00,87.0,68.0,29.96,West,281,0.0,-999.0,53,-99.99,,,-99.99,,2013-09-04 03:22:00,
2013-09-03 22:54:00,87.0,69.0,29.96,West,281,0.0,-999.0,55,-99.99,,,-99.99,,2013-09-04 03:54:00,
2013-09-03 23:14:00,86.0,68.0,29.96,West,281,0.0,-999.0,56,-99.99,,,-99.99,,2013-09-04 04:14:00,
2013-09-03 23:54:00,85.0,70.0,29.97,West,281,0.0,-999.0,60,-99.99,,,-99.99,,2013-09-04 04:54:00,